Wind_Speed
15 17 19 21 22 23 22 21 20 19 18 15 14 15 16 13 9 8 8 8 5 3 4 6 7 14 19 18 15 8 6 9 16 6 5 11 11 11 10 8 6 8 6 7 7
17 17 18 20 21 23 25 25 24 22 21 20 17 15 18 17 15 10 11 10 8 4 3 3 7 13 17 23 17 10 6 5 8 10 9 8 6 7 8 8 9 9 6 6 7
17 18 19 20 21 21 23 25 27 27 24 23 22 18 17 20 17 14 12 11 11 6 5 1 3 9 15 21 16 8 6 5 7 6 11 10 10 10 8 5 5 6 1 6 9
16 17 18 19 20 22 22 24 26 28 29 26 25 24 20 22 15 16 14 12 13 10 8 4 2 4 9 16 13 11 8 4 4 8 9 11 10 8 9 6 1 1 2 3 8
17 17 18 18 18 19 22 23 24 25 27 28 29 26 26 24 23 13 16 16 15 12 9 5 3 3 4 10 8 10 7 7 5 4 4 9 6 5 3 1 2 5 1 8 12
17 18 19 18 18 18 19 20 22 23 25 27 29 30 29 30 27 21 19 19 17 14 11 8 6 4 3 2 5 7 5 2 1 8 6 5 5 4 1 3 4 5 2 11 13
20 19 18 17 18 18 19 18 18 20 23 25 27 30 35 32 31 25 22 21 18 17 14 12 13 10 9 2 0 2 3 1 3 8 5 5 7 4 6 2 2 2 4 13 17
20 20 20 18 17 17 17 17 17 18 19 21 25 28 33 33 35 31 26 25 22 19 15 14 17 16 12 10 2 6 7 3 6 8 10 7 4 6 6 3 5 4 3 14 19
18 19 22 20 19 17 16 16 15 16 17 18 21 25 29 31 35 36 33 30 27 24 19 19 21 19 17 13 3 9 9 2 6 7 10 10 10 6 5 5 5 3 4 10 17
18 19 19 20 20 17 16 17 16 14 15 16 18 19 23 24 33 37 38 36 30 29 25 23 23 23 21 17 7 8 8 6 8 10 14 14 17 14 13 12 12 6 2 9 14
17 17 17 18 18 17 15 17 18 18 15 17 14 16 10 23 20 35 39 40 37 30 30 27 28 28 22 18 13 9 6 6 11 5 8 13 20 20 22 22 21 13 9 6 12
18 17 17 18 17 17 13 13 16 16 16 14 15 15 17 17 23 26 37 41 44 40 32 29 32 27 20 16 12 11 9 10 10 7 10 12 19 21 23 19 16 15 11 10 10
20 19 18 20 18 16 16 13 13 14 17 13 16 17 16 19 22 25 30 39 45 45 42 38 34 25 25 22 18 15 12 13 12 11 12 17 18 17 23 19 19 18 13 13 15
21 19 18 18 18 16 16 13 10 12 7 2 8 6 9 11 17 26 26 32 38 47 45 43 39 33 30 30 24 22 15 15 15 14 11 12 8 23 15 12 16 13 11 14 17
21 20 17 17 16 16 14 12 8 6 1 5 8 9 6 5 6 19 32 29 30 39 41 44 43 41 39 36 29 26 19 20 22 20 19 20 12 23 18 17 17 17 18 18 18
21 19 15 17 16 15 12 10 9 7 6 8 8 7 4 3 2 2 27 31 28 24 24 37 41 41 42 37 32 26 24 24 23 15 10 26 16 24 22 19 18 18 20 20 16
20 18 14 14 14 12 11 10 8 6 5 5 10 7 6 4 3 8 9 23 25 22 25 23 36 32 33 33 35 31 22 5 4 4 6 16 14 29 15 13 20 27 28 27 22
15 15 13 10 9 9 10 13 7 6 5 5 3 4 5 7 5 5 13 12 21 22 23 23 18 33 21 27 27 32 31 13 6 3 4 12 11 25 22 18 19 20 10 11 16
14 12 10 8 6 7 12 14 4 5 4 5 3 5 5 6 6 9 17 13 7 22 18 17 22 21 31 28 23 21 24 27 20 14 6 8 20 28 25 16 8 5 7 19 25
14 11 8 5 3 6 12 13 7 8 5 2 4 3 4 7 6 8 7 10 8 4 18 17 10 19 23 18 28 32 22 16 15 6 5 7 18 20 17 12 15 12 15 11 24
14 10 7 4 2 3 8 10 12 9 8 4 3 2 2 2 6 5 7 7 8 7 8 13 20 14 19 25 27 28 32 18 9 22 6 2 18 30 28 18 15 17 15 5 17
13 10 8 7 4 4 5 7 10 9 7 5 5 4 2 2 2 6 7 5 3 6 7 5 11 17 29 14 16 28 32 37 28 14 14 15 36 16 11 16 19 18 17 12 13
14 10 9 10 6 4 9 6 2 5 6 6 7 7 7 3 4 9 9 5 3 1 3 3 3 4 8 23 25 19 20 29 30 30 34 16 19 16 26 27 22 22 23 18 18
15 7 10 15 14 12 12 8 7 4 6 7 9 8 7 7 5 6 11 5 4 3 2 0 2 2 6 6 11 15 28 20 21 25 28 36 33 37 31 22 21 9 14 16 18
17 10 10 11 17 18 16 10 8 9 6 6 9 11 12 10 11 11 8 8 8 12 9 3 4 8 9 8 10 16 15 22 22 24 25 30 28 31 32 34 28 25 19 14 16
15 13 11 14 16 15 16 12 14 15 13 10 8 9 9 12 13 10 11 12 7 7 11 6 5 8 13 9 9 14 16 17 17 20 24 23 26 29 31 31 36 25 20 19 14
18 13 14 12 14 17 16 17 14 14 13 13 8 9 9 9 10 10 10 9 8 8 8 5 5 7 7 9 10 10 13 16 13 19 22 15 18 28 31 31 33 26 23 20 14
Wind_Direction
260 257 254 250 248 248 249 248 246 243 242 244 229 223 225 227 230 217 213 226 245 289 9 38 35 20 16 15 27 12 332 58 97 80 178 174 167 170 180 188 189 175 135 168 203
265 262 259 256 253 251 249 248 248 244 240 239 241 230 220 235 234 230 217 219 239 273 308 41 20 26 28 19 7 25 38 83 70 87 130 131 167 154 164 185 198 223 220 200 188
274 268 263 259 256 253 251 250 248 246 243 237 237 238 226 230 235 235 222 213 226 241 253 305 358 23 29 13 3 27 23 39 69 155 132 150 139 147 142 120 98 61 270 201 185
280 277 274 268 263 258 253 250 249 248 244 241 236 233 232 226 239 235 222 212 223 223 228 229 289 358 22 18 34 43 14 330 114 164 139 138 138 124 114 91 148 194 154 180 184
286 282 277 273 271 266 261 255 250 247 246 243 238 233 230 227 224 226 225 216 223 224 221 225 255 308 16 28 10 18 351 322 195 159 143 163 163 176 163 194 330 296 195 153 172
285 282 281 278 274 269 267 262 256 251 245 241 238 235 229 226 226 223 215 215 215 218 220 200 219 271 282 54 14 6 341 352 70 161 199 181 184 205 309 347 280 299 251 154 164
291 286 282 277 274 273 270 265 262 255 249 244 238 235 231 222 224 226 220 216 209 216 215 195 203 220 246 237 59 123 154 302 89 178 210 229 204 256 271 295 319 309 210 167 169
293 287 284 281 276 273 270 268 261 257 254 247 240 236 235 225 224 225 224 223 223 218 217 213 211 219 239 251 169 186 136 154 158 206 234 234 230 300 287 286 26 329 220 180 182
301 293 286 281 276 272 269 269 264 259 253 248 242 238 236 228 223 222 221 222 227 226 223 214 220 221 226 239 196 199 175 160 186 215 237 243 250 274 326 331 331 10 262 205 189
302 298 292 285 280 273 264 263 262 265 259 251 244 240 230 228 223 219 221 219 222 227 228 223 220 225 223 228 203 161 168 158 191 213 231 260 267 267 268 277 300 288 250 232 216
304 299 298 294 285 276 267 260 259 265 265 253 245 235 219 223 217 216 218 219 219 223 224 226 220 226 222 232 231 212 218 237 200 266 296 285 265 262 276 271 270 279 283 236 224
301 298 297 297 294 286 277 263 262 263 263 264 249 241 223 216 214 212 213 214 218 220 220 220 223 223 228 224 233 233 242 229 226 285 306 295 279 263 272 268 278 284 279 248 209
303 294 292 294 295 286 281 275 269 265 269 260 256 254 238 228 223 211 214 212 216 219 220 224 224 217 223 231 243 239 237 243 261 291 297 299 294 266 256 256 257 268 249 240 241
306 294 289 288 290 284 274 270 261 269 278 221 182 197 206 232 238 214 210 215 218 218 221 228 230 231 231 233 239 250 239 258 272 290 287 309 281 286 282 254 252 258 255 252 241
317 303 293 281 282 278 272 259 238 221 315 199 181 201 171 175 210 214 206 212 218 220 218 223 227 230 234 233 236 245 250 258 274 279 283 275 280 283 281 256 273 279 285 285 253
323 318 301 279 273 273 259 247 212 186 238 185 184 190 204 161 157 145 201 206 211 212 222 225 229 232 235 238 239 243 249 260 268 273 256 262 256 282 262 263 276 290 298 287 273
312 313 310 282 274 266 240 216 185 208 212 201 190 193 178 176 198 199 168 198 209 209 210 206 216 225 233 236 237 235 237 237 267 225 222 262 245 252 241 261 295 293 285 283 279
314 316 308 285 273 248 217 191 208 211 193 187 172 152 160 140 80 180 181 178 204 208 223 212 222 214 204 220 226 223 220 197 196 209 259 246 225 250 274 285 295 300 299 211 197
323 319 309 288 261 217 203 202 218 200 224 212 187 187 175 150 123 97 132 138 176 212 209 200 224 228 228 223 216 211 213 227 235 265 293 262 256 259 258 281 306 282 275 206 191
332 320 308 281 221 197 201 210 211 210 231 217 174 186 163 180 148 142 130 101 85 168 209 215 224 225 223 223 235 236 233 213 206 173 251 245 256 247 259 258 289 310 313 268 196
333 309 279 243 248 237 212 210 214 217 223 192 166 158 169 199 143 105 161 147 106 123 178 213 221 230 231 228 229 223 223 215 215 221 189 189 255 254 255 253 280 300 298 246 211
337 309 262 252 270 271 194 187 206 206 212 207 175 197 257 154 202 184 171 157 128 111 156 182 204 224 231 220 229 232 235 231 234 225 234 243 258 242 232 261 269 291 287 261 208
337 304 272 254 261 255 201 205 193 189 195 190 201 219 230 199 186 178 203 215 227 145 105 175 171 205 219 233 230 243 234 229 235 238 239 245 254 249 260 252 268 273 275 276 240
335 301 269 249 256 261 244 237 211 238 242 224 217 213 211 232 217 206 180 199 234 258 255 249 208 203 203 203 211 225 235 234 226 225 227 241 255 259 248 236 244 281 307 266 239
332 308 270 250 248 256 255 254 239 223 216 216 241 240 236 232 250 251 254 269 281 267 273 268 256 259 252 254 246 231 224 226 238 248 235 244 254 257 259 247 249 273 274 282 266
330 327 305 263 250 245 244 245 249 244 243 239 238 228 226 229 240 266 273 275 260 254 262 255 249 285 272 272 253 256 227 217 221 229 241 243 251 258 258 256 249 261 261 271 253
325 318 298 283 251 251 249 235 227 235 235 237 221 230 231 231 234 239 256 273 270 235 240 219 229 275 270 249 236 259 238 226 238 236 232 234 242 252 256 252 248 252 252 257 252
Height
3141 3141 3142 3143 3143 3144 3145 3146 3148 3150 3151 3153 3155 3156 3158 3159 3160 3161 3162 3163 3163 3163 3164 3164 3163 3161 3158 3157 3156 3155 3156 3156 3157 3158 3158 3160 3162 3163 3165 3167 3169 3171 3173 3175 3176
3137 3137 3138 3138 3139 3140 3141 3142 3143 3146 3148 3150 3152 3154 3156 3157 3158 3159 3161 3162 3162 3163 3163 3163 3162 3161 3159 3158 3157 3157 3157 3157 3159 3159 3160 3162 3163 3164 3166 3167 3169 3171 3173 3175 3177
3133 3133 3133 3134 3134 3135 3136 3136 3138 3140 3143 3146 3149 3151 3153 3155 3156 3157 3158 3160 3161 3161 3161 3162 3162 3162 3160 3159 3158 3158 3159 3158 3161 3161 3161 3162 3163 3165 3167 3169 3170 3171 3173 3174 3177
3129 3129 3128 3128 3129 3130 3131 3131 3132 3134 3137 3141 3144 3147 3150 3152 3156 3154 3156 3158 3159 3160 3160 3161 3162 3162 3161 3160 3160 3160 3160 3158 3161 3163 3163 3164 3165 3167 3168 3170 3171 3172 3173 3175 3178
3125 3124 3124 3124 3124 3125 3125 3126 3127 3129 3131 3135 3138 3142 3145 3148 3151 3152 3153 3155 3157 3158 3159 3160 3162 3162 3162 3161 3161 3160 3160 3160 3161 3164 3166 3167 3167 3169 3170 3170 3171 3172 3173 3174 3178
3122 3121 3120 3120 3120 3120 3120 3121 3122 3124 3125 3127 3131 3135 3139 3143 3146 3148 3150 3152 3155 3157 3158 3159 3161 3161 3163 3162 3163 3161 3161 3161 3162 3163 3166 3168 3168 3169 3170 3170 3171 3172 3174 3175 3179
3118 3117 3116 3116 3115 3115 3115 3116 3117 3117 3119 3122 3125 3127 3131 3139 3141 3144 3147 3149 3152 3155 3157 3158 3159 3161 3161 3162 3163 3162 3162 3161 3163 3164 3166 3168 3169 3169 3169 3171 3171 3172 3174 3175 3178
3114 3114 3113 3112 3111 3111 3111 3111 3112 3112 3114 3115 3118 3121 3123 3131 3134 3140 3143 3146 3148 3151 3155 3156 3158 3159 3160 3162 3163 3162 3163 3162 3163 3165 3166 3168 3169 3169 3170 3171 3171 3173 3174 3175 3178
3110 3109 3108 3108 3107 3107 3107 3107 3107 3108 3108 3110 3112 3114 3118 3122 3128 3133 3137 3141 3144 3148 3152 3153 3155 3156 3158 3160 3162 3162 3161 3162 3163 3164 3165 3166 3168 3168 3169 3170 3171 3172 3174 3175 3177
3107 3105 3104 3103 3103 3103 3103 3103 3103 3104 3104 3105 3107 3111 3113 3114 3119 3124 3130 3135 3140 3143 3146 3149 3151 3152 3155 3157 3160 3161 3161 3162 3164 3166 3165 3166 3165 3166 3167 3169 3170 3171 3172 3175 3176
3103 3102 3100 3099 3098 3098 3100 3099 3102 3102 3100 3101 3102 3103 3106 3108 3111 3117 3122 3128 3133 3136 3139 3144 3147 3146 3153 3156 3158 3159 3160 3161 3162 3164 3164 3162 3162 3163 3165 3165 3166 3169 3170 3172 3175
3100 3099 3097 3096 3095 3094 3095 3095 3095 3097 3096 3096 3097 3098 3101 3103 3104 3109 3114 3121 3124 3129 3134 3139 3138 3146 3150 3152 3154 3156 3158 3159 3160 3161 3162 3161 3159 3160 3159 3160 3162 3165 3167 3170 3171
3096 3095 3094 3092 3091 3091 3090 3091 3091 3091 3091 3094 3093 3094 3095 3098 3099 3104 3108 3112 3116 3122 3127 3130 3136 3143 3146 3147 3150 3153 3156 3157 3159 3159 3158 3158 3155 3153 3153 3156 3158 3160 3164 3166 3168
3092 3090 3089 3088 3090 3087 3087 3087 3088 3088 3089 3090 3090 3091 3092 3092 3096 3098 3101 3107 3110 3115 3122 3126 3133 3137 3141 3143 3148 3149 3155 3155 3156 3158 3157 3158 3154 3151 3152 3152 3154 3157 3159 3161 3163
3088 3085 3085 3084 3084 3083 3085 3084 3085 3088 3088 3088 3087 3088 3088 3090 3091 3091 3096 3101 3105 3109 3115 3118 3125 3129 3132 3137 3144 3147 3152 3153 3153 3154 3154 3154 3155 3145 3146 3147 3149 3151 3153 3155 3158
3085 3081 3080 3079 3079 3080 3080 3081 3084 3088 3083 3083 3083 3085 3086 3086 3087 3088 3090 3097 3103 3106 3109 3115 3120 3123 3127 3135 3140 3145 3148 3149 3149 3151 3149 3147 3152 3139 3141 3144 3145 3146 3147 3149 3152
3081 3078 3075 3074 3075 3076 3077 3079 3083 3081 3081 3081 3081 3082 3083 3085 3085 3086 3088 3093 3099 3102 3104 3108 3112 3117 3122 3128 3132 3139 3143 3146 3148 3147 3142 3143 3145 3138 3138 3141 3142 3141 3141 3143 3146
3077 3074 3072 3071 3071 3072 3074 3078 3078 3076 3076 3077 3079 3080 3082 3083 3084 3084 3087 3090 3093 3096 3100 3104 3109 3112 3116 3121 3126 3130 3135 3139 3146 3145 3138 3139 3136 3133 3137 3137 3136 3134 3134 3136 3140
3074 3072 3070 3068 3069 3070 3073 3074 3074 3075 3075 3075 3077 3078 3080 3081 3084 3084 3085 3088 3089 3091 3097 3099 3103 3108 3113 3118 3123 3127 3128 3136 3137 3137 3138 3134 3131 3131 3134 3133 3133 3133 3133 3134 3136
3073 3070 3068 3067 3067 3068 3070 3072 3073 3073 3073 3074 3075 3076 3077 3080 3082 3083 3086 3088 3089 3090 3092 3095 3100 3103 3110 3114 3117 3121 3128 3131 3132 3136 3138 3129 3126 3125 3129 3130 3131 3132 3133 3133 3135
3072 3069 3068 3067 3068 3068 3068 3069 3071 3070 3072 3074 3074 3075 3077 3079 3081 3082 3085 3088 3088 3089 3090 3091 3096 3101 3105 3105 3110 3115 3118 3123 3125 3126 3125 3130 3117 3122 3126 3128 3129 3131 3132 3133 3134
3071 3069 3067 3067 3069 3067 3066 3067 3068 3069 3071 3072 3073 3074 3075 3078 3080 3082 3083 3086 3087 3088 3090 3091 3092 3095 3099 3103 3106 3109 3111 3117 3119 3121 3121 3122 3108 3122 3123 3125 3127 3128 3130 3132 3133
3069 3067 3065 3066 3066 3065 3066 3066 3066 3067 3068 3070 3071 3073 3074 3077 3081 3082 3083 3085 3086 3088 3089 3090 3091 3092 3094 3101 3101 3103 3105 3109 3112 3117 3114 3116 3110 3118 3121 3122 3124 3125 3126 3128 3130
3067 3065 3063 3063 3063 3064 3064 3065 3066 3067 3067 3068 3069 3071 3074 3075 3078 3080 3082 3084 3085 3087 3089 3089 3090 3091 3092 3093 3096 3098 3100 3104 3106 3107 3108 3105 3110 3113 3116 3118 3121 3121 3123 3123 3126
3063 3062 3060 3060 3059 3060 3061 3063 3063 3064 3065 3066 3068 3070 3072 3074 3076 3077 3080 3083 3085 3086 3087 3090 3089 3090 3090 3091 3092 3094 3096 3099 3100 3103 3103 3104 3106 3109 3112 3114 3115 3118 3120 3121 3121
3059 3058 3057 3055 3056 3057 3057 3059 3060 3062 3065 3065 3066 3068 3069 3072 3075 3076 3077 3079 3082 3084 3085 3086 3087 3088 3088 3089 3090 3091 3093 3095 3097 3098 3098 3098 3101 3104 3106 3109 3109 3113 3115 3117 3118
3054 3053 3053 3051 3051 3052 3053 3054 3056 3058 3061 3062 3064 3066 3068 3070 3071 3073 3075 3077 3079 3082 3084 3085 3086 3087 3087 3087 3088 3090 3089 3091 3092 3092 3093 3093 3096 3097 3100 3102 3105 3109 3111 3112 3114